Time,TemperatureF,DewpointF,PressureIn,WindDirection,WindDirectionDegrees,WindSpeedMPH,WindSpeedGustMPH,Humidity,HourlyPrecipIn,Conditions,Clouds,dailyrainin,SolarRadiationWatts/m^2,SoftwareType,DateUTC
2013-09-07 00:21:00,62.0,48.0,-100.00,SSW,205,4.0,8.0,61,0.00,,,0.04,0.000000,,2013-09-07 06:21:00,
2013-09-07 00:33:00,62.0,48.0,-100.00,SSW,205,4.0,8.0,61,0.00,,,0.04,0.000000,,2013-09-07 06:33:00,
2013-09-07 00:42:00,62.0,48.0,-100.00,SSW,205,4.0,8.0,61,0.00,,,0.04,0.000000,,2013-09-07 06:42:00,
2013-09-07 00:52:00,62.0,48.0,-100.00,SSW,205,4.0,8.0,61,0.00,,,0.04,0.000000,,2013-09-07 06:52:00,
2013-09-07 01:22:00,62.0,50.0,-100.00,North,358,3.0,8.0,65,0.00,,,0.00,0.000000,,2013-09-07 07:22:00,
2013-09-07 01:33:00,62.0,50.0,-100.00,North,358,3.0,8.0,65,0.00,,,0.00,0.000000,,2013-09-07 07:33:00,
2013-09-07 01:42:00,62.0,50.0,-100.00,North,358,3.0,8.0,65,0.00,,,0.00,0.000000,,2013-09-07 07:42:00,
2013-09-07 01:52:00,62.0,50.0,-100.00,North,358,3.0,8.0,65,0.00,,,0.00,0.000000,,2013-09-07 07:52:00,
2013-09-07 02:21:00,62.0,51.0,-100.00,SE,146,2.0,7.0,66,0.00,,,0.00,0.000000,,2013-09-07 08:21:00,
2013-09-07 02:32:00,62.0,51.0,-100.00,SE,146,2.0,7.0,66,0.00,,,0.00,0.000000,,2013-09-07 08:32:00,
2013-09-07 02:43:00,62.0,51.0,-100.00,SE,146,2.0,7.0,66,0.00,,,0.00,0.000000,,2013-09-07 08:43:00,
2013-09-07 02:52:00,62.0,51.0,-100.00,SE,146,2.0,7.0,66,0.00,,,0.00,0.000000,,2013-09-07 08:52:00,
2013-09-07 03:21:00,60.0,51.0,-100.00,West,278,4.0,8.0,73,0.00,,,0.00,0.000000,,2013-09-07 09:21:00,
2013-09-07 03:32:00,60.0,51.0,-100.00,West,278,4.0,8.0,73,0.00,,,0.00,0.000000,,2013-09-07 09:32:00,
2013-09-07 03:42:00,60.0,51.0,-100.00,West,278,4.0,8.0,73,0.00,,,0.00,0.000000,,2013-09-07 09:42:00,
2013-09-07 03:52:00,60.0,51.0,-100.00,West,278,4.0,8.0,73,0.00,,,0.00,0.000000,,2013-09-07 09:52:00,
2013-09-07 04:21:00,58.0,50.0,-100.00,West,273,4.0,8.0,76,0.00,,,0.00,0.000000,,2013-09-07 10:21:00,
2013-09-07 04:31:00,58.0,50.0,-100.00,West,273,4.0,8.0,76,0.00,,,0.00,0.000000,,2013-09-07 10:31:00,
2013-09-07 04:41:00,58.0,50.0,-100.00,West,273,4.0,8.0,76,0.00,,,0.00,0.000000,,2013-09-07 10:41:00,
2013-09-07 04:51:00,58.0,50.0,-100.00,West,273,4.0,8.0,76,0.00,,,0.00,0.000000,,2013-09-07 10:51:00,
2013-09-07 05:23:00,58.0,51.0,-100.00,WNW,294,3.0,8.0,77,0.00,,,0.00,0.000000,,2013-09-07 11:23:00,
2013-09-07 05:33:00,58.0,51.0,-100.00,WNW,294,3.0,8.0,77,0.00,,,0.00,0.000000,,2013-09-07 11:33:00,
2013-09-07 05:43:00,58.0,51.0,-100.00,WNW,294,3.0,8.0,77,0.00,,,0.00,0.000000,,2013-09-07 11:43:00,
2013-09-07 05:52:00,58.0,51.0,-100.00,WNW,294,3.0,8.0,77,0.00,,,0.00,0.000000,,2013-09-07 11:52:00,
2013-09-07 06:22:00,57.0,51.0,-100.00,NE,45,0.0,8.0,80,0.00,,,0.00,0.000000,,2013-09-07 12:22:00,
2013-09-07 06:32:00,57.0,51.0,-100.00,NE,45,0.0,8.0,80,0.00,,,0.00,0.000000,,2013-09-07 12:32:00,
2013-09-07 06:42:00,57.0,51.0,-100.00,NE,45,0.0,8.0,80,0.00,,,0.00,0.000000,,2013-09-07 12:42:00,
2013-09-07 06:52:00,57.0,51.0,-100.00,NE,45,0.0,8.0,80,0.00,,,0.00,0.000000,,2013-09-07 12:52:00,
2013-09-07 07:21:00,55.0,49.0,-100.00,WNW,303,4.0,8.0,81,0.00,,,0.00,0.000000,,2013-09-07 13:21:00,
2013-09-07 07:32:00,55.0,49.0,-100.00,WNW,303,4.0,8.0,81,0.00,,,0.00,0.000000,,2013-09-07 13:32:00,
2013-09-07 07:42:00,55.0,49.0,-100.00,WNW,303,4.0,8.0,81,0.00,,,0.00,0.000000,,2013-09-07 13:42:00,
2013-09-07 07:52:00,55.0,49.0,-100.00,WNW,303,4.0,8.0,81,0.00,,,0.00,0.000000,,2013-09-07 13:52:00,
2013-09-07 08:22:00,58.0,52.0,-100.00,SSE,156,1.0,8.0,81,0.00,,,0.00,56.000000,,2013-09-07 14:22:00,
2013-09-07 08:32:00,58.0,52.0,-100.00,SSE,156,1.0,8.0,81,0.00,,,0.00,56.000000,,2013-09-07 14:32:00,
2013-09-07 08:42:00,58.0,52.0,-100.00,SSE,156,1.0,8.0,81,0.00,,,0.00,56.000000,,2013-09-07 14:42:00,
2013-09-07 08:52:00,58.0,52.0,-100.00,SSE,156,1.0,8.0,81,0.00,,,0.00,56.000000,,2013-09-07 14:52:00,
2013-09-07 09:22:00,59.0,51.0,-100.00,SSE,168,0.0,5.0,75,0.00,,,0.00,176.000000,,2013-09-07 15:22:00,
2013-09-07 09:34:00,59.0,51.0,-100.00,SSE,168,0.0,5.0,75,0.00,,,0.00,176.000000,,2013-09-07 15:34:00,
2013-09-07 09:44:00,59.0,51.0,-100.00,SSE,168,0.0,5.0,75,0.00,,,0.00,176.000000,,2013-09-07 15:44:00,
2013-09-07 09:53:00,59.0,51.0,-100.00,SSE,168,0.0,5.0,75,0.00,,,0.00,176.000000,,2013-09-07 15:53:00,
2013-09-07 10:24:00,62.0,52.0,-100.00,ESE,120,3.0,8.0,70,0.00,,,0.00,329.000000,,2013-09-07 16:24:00,
2013-09-07 10:34:00,62.0,52.0,-100.00,ESE,120,3.0,8.0,70,0.00,,,0.00,329.000000,,2013-09-07 16:34:00,
2013-09-07 10:43:00,62.0,52.0,-100.00,ESE,120,3.0,8.0,70,0.00,,,0.00,329.000000,,2013-09-07 16:43:00,
2013-09-07 10:53:00,62.0,52.0,-100.00,ESE,120,3.0,8.0,70,0.00,,,0.00,329.000000,,2013-09-07 16:53:00,
2013-09-07 11:24:00,62.0,53.0,-100.00,SE,124,5.0,10.0,73,0.00,,,0.00,586.000000,,2013-09-07 17:24:00,
2013-09-07 11:33:00,62.0,53.0,-100.00,SE,124,5.0,10.0,73,0.00,,,0.00,586.000000,,2013-09-07 17:33:00,
2013-09-07 11:43:00,62.0,53.0,-100.00,SE,124,5.0,10.0,73,0.00,,,0.00,586.000000,,2013-09-07 17:43:00,
2013-09-07 11:52:00,62.0,53.0,-100.00,SE,124,5.0,10.0,73,0.00,,,0.00,586.000000,,2013-09-07 17:52:00,
2013-09-07 12:22:00,65.0,53.0,-100.00,ESE,103,5.0,11.0,65,0.00,,,0.00,737.000000,,2013-09-07 18:22:00,
2013-09-07 12:32:00,65.0,53.0,-100.00,ESE,103,5.0,11.0,65,0.00,,,0.00,737.000000,,2013-09-07 18:32:00,
2013-09-07 12:43:00,65.0,53.0,-100.00,ESE,103,5.0,11.0,65,0.00,,,0.00,737.000000,,2013-09-07 18:43:00,
2013-09-07 12:52:00,65.0,53.0,-100.00,ESE,103,5.0,11.0,65,0.00,,,0.00,737.000000,,2013-09-07 18:52:00,
2013-09-07 13:22:00,68.0,55.0,-100.00,ESE,107,4.0,12.0,63,0.00,,,0.00,897.000000,,2013-09-07 19:22:00,
2013-09-07 13:32:00,68.0,55.0,-100.00,ESE,107,4.0,12.0,63,0.00,,,0.00,897.000000,,2013-09-07 19:32:00,
2013-09-07 13:42:00,68.0,55.0,-100.00,ESE,107,4.0,12.0,63,0.00,,,0.00,897.000000,,2013-09-07 19:42:00,
2013-09-07 13:52:00,68.0,55.0,-100.00,ESE,107,4.0,12.0,63,0.00,,,0.00,897.000000,,2013-09-07 19:52:00,
2013-09-07 14:22:00,73.0,54.0,-100.00,ENE,61,3.0,11.0,52,0.00,,,0.00,952.000000,,2013-09-07 20:22:00,
2013-09-07 14:32:00,73.0,54.0,-100.00,ENE,61,3.0,11.0,52,0.00,,,0.00,952.000000,,2013-09-07 20:32:00,
2013-09-07 14:42:00,73.0,54.0,-100.00,ENE,61,3.0,11.0,52,0.00,,,0.00,952.000000,,2013-09-07 20:42:00,
2013-09-07 14:52:00,73.0,54.0,-100.00,ENE,61,3.0,11.0,52,0.00,,,0.00,952.000000,,2013-09-07 20:52:00,
2013-09-07 14:54:00,74.0,53.0,-100.00,ESE,104,6.0,13.0,48,0.00,,,0.00,978.000000,,2013-09-07 20:54:00,
2013-09-07 15:22:00,74.0,53.0,-100.00,ESE,104,6.0,13.0,48,0.00,,,0.00,978.000000,,2013-09-07 21:22:00,
2013-09-07 15:34:00,74.0,53.0,-100.00,ESE,104,6.0,13.0,48,0.00,,,0.00,978.000000,,2013-09-07 21:34:00,
2013-09-07 15:44:00,74.0,53.0,-100.00,ESE,104,6.0,13.0,48,0.00,,,0.00,978.000000,,2013-09-07 21:44:00,
2013-09-07 16:24:00,77.0,47.0,-100.00,SE,144,7.0,15.0,35,0.00,,,0.00,1109.000000,,2013-09-07 22:24:00,
2013-09-07 16:33:00,77.0,47.0,-100.00,SE,144,7.0,15.0,35,0.00,,,0.00,1109.000000,,2013-09-07 22:33:00,
2013-09-07 16:43:00,77.0,47.0,-100.00,SE,144,7.0,15.0,35,0.00,,,0.00,1109.000000,,2013-09-07 22:43:00,
2013-09-07 16:53:00,77.0,47.0,-100.00,SE,144,7.0,15.0,35,0.00,,,0.00,1109.000000,,2013-09-07 22:53:00,
2013-09-07 17:23:00,76.0,44.0,-100.00,South,175,9.0,16.0,32,0.00,,,0.00,853.000000,,2013-09-07 23:23:00,
2013-09-07 17:34:00,76.0,44.0,-100.00,South,175,9.0,16.0,32,0.00,,,0.00,853.000000,,2013-09-07 23:34:00,
2013-09-07 17:42:00,76.0,44.0,-100.00,South,175,9.0,16.0,32,0.00,,,0.00,853.000000,,2013-09-07 23:42:00,
2013-09-07 17:52:00,76.0,44.0,-100.00,South,175,9.0,16.0,32,0.00,,,0.00,853.000000,,2013-09-07 23:52:00,
2013-09-07 18:22:00,71.0,47.0,-100.00,SE,144,5.0,14.0,42,0.00,,,0.00,285.000000,,2013-09-08 00:22:00,
2013-09-07 18:32:00,71.0,47.0,-100.00,SE,144,5.0,14.0,42,0.00,,,0.00,285.000000,,2013-09-08 00:32:00,
2013-09-07 18:42:00,71.0,47.0,-100.00,SE,144,5.0,14.0,42,0.00,,,0.00,285.000000,,2013-09-08 00:42:00,
2013-09-07 18:52:00,71.0,47.0,-100.00,SE,144,5.0,14.0,42,0.00,,,0.00,285.000000,,2013-09-08 00:52:00,
2013-09-07 20:22:00,60.0,41.0,-100.00,NNW,332,9.0,16.0,49,-99.99,,,0.19,48.000000,,2013-09-08 02:22:00,
2013-09-07 20:32:00,60.0,41.0,-100.00,NNW,332,9.0,16.0,49,-99.99,,,0.19,48.000000,,2013-09-08 02:32:00,
2013-09-07 20:43:00,60.0,41.0,-100.00,NNW,332,9.0,16.0,49,-99.99,,,0.19,48.000000,,2013-09-08 02:43:00,
2013-09-07 20:52:00,60.0,41.0,-100.00,NNW,332,9.0,16.0,49,-99.99,,,0.19,48.000000,,2013-09-08 02:52:00,
2013-09-07 20:54:00,58.0,44.0,-100.00,WNW,297,10.0,14.0,60,0.00,,,0.19,1.000000,,2013-09-08 02:54:00,
2013-09-07 21:22:00,58.0,44.0,-100.00,WNW,297,10.0,14.0,60,0.00,,,0.19,1.000000,,2013-09-08 03:22:00,
2013-09-07 21:34:00,58.0,44.0,-100.00,WNW,297,10.0,14.0,60,0.00,,,0.19,1.000000,,2013-09-08 03:34:00,
2013-09-07 21:44:00,58.0,44.0,-100.00,WNW,297,10.0,14.0,60,0.00,,,0.19,1.000000,,2013-09-08 03:44:00,
2013-09-07 22:24:00,58.0,46.0,-100.00,NNW,345,7.0,21.0,65,0.04,,,0.23,0.000000,,2013-09-08 04:24:00,
2013-09-07 22:34:00,58.0,46.0,-100.00,NNW,345,7.0,21.0,65,0.04,,,0.23,0.000000,,2013-09-08 04:34:00,
2013-09-07 22:43:00,58.0,46.0,-100.00,NNW,345,7.0,21.0,65,0.04,,,0.23,0.000000,,2013-09-08 04:43:00,
2013-09-07 22:53:00,58.0,46.0,-100.00,NNW,345,7.0,21.0,65,0.04,,,0.23,0.000000,,2013-09-08 04:53:00,
2013-09-07 23:23:00,57.0,47.0,-100.00,ENE,67,4.0,10.0,70,0.00,,,0.23,0.000000,,2013-09-08 05:23:00,
2013-09-07 23:34:00,57.0,47.0,-100.00,ENE,67,4.0,10.0,70,0.00,,,0.23,0.000000,,2013-09-08 05:34:00,
2013-09-07 23:43:00,57.0,47.0,-100.00,ENE,67,4.0,10.0,70,0.00,,,0.23,0.000000,,2013-09-08 05:43:00,
2013-09-07 23:52:00,57.0,47.0,-100.00,ENE,67,4.0,10.0,70,0.00,,,0.23,0.000000,,2013-09-08 05:52:00,